Regional Weather Roundup
Issued by NWS

Home | Current Version | Previous Version | Text Only | Print | Product List | Glossary On
Versions: 1 2 3 4 5 6 7 8 9 10 11 12 13 14 15 16 17 18 19 20 21 22 23 24 25 26 27 28 29 30 31 32 33 34 35 36 37 38 39 40 41 42 43 44 45 46 47 48 49 50
000
ASUS44 KOUN 241010
RWROK

WEATHER ROUNDUP FOR OKLAHOMA
NATIONAL WEATHER SERVICE NORMAN OK
500 AM CDT TUE MAY 24 2016

NOTE: "FAIR" INDICATES FEW OR NO CLOUDS BELOW 12,000 FEET WITH NO
      SIGNIFICANT WEATHER AND/OR OBSTRUCTIONS TO VISIBILITY.

OKZ001>007-009>012-014-015-017-241100-
NORTHWEST OKLAHOMA AND THE PANHANDLE

CITY           SKY/WX    TMP DP  RH WIND       PRES   REMARKS
GAGE           CLEAR     68  64  87 S17       29.76F
GUYMON         CLEAR     66  59  78 S17G25    29.76R
ENID/WOODRING  CLOUDY    72  70  94 S10       29.75S
$$

OKZ016-021>023-033>039-044-045-241100-
SOUTHWEST OKLAHOMA

CITY           SKY/WX    TMP DP  RH WIND       PRES   REMARKS
LAWTON/REGL    CLOUDY    67  63  87 SE7       29.85R
LAWTON/FT SILL CLOUDY    68  64  88 S10G21    29.83R
FREDERICK      CLOUDY    66  66 100 S10       29.84R
CLINTON        PTCLDY    66  57  72 S16       29.83R
HOBART         CLOUDY    65  60  84 S15       29.84R
ALTUS AFB      CLEAR     64  61  87 S13       29.83R
$$

OKZ018>020-024>031-241100-
CENTRAL OKLAHOMA

CITY           SKY/WX    TMP DP  RH WIND       PRES   REMARKS
OKLAHOMA CITY  CLOUDY    73  70  90 S22G36    29.76F
OKC/WILEY POST CLOUDY    73  69  87 S20G28    29.77F
OKC/TINKER AFB CLOUDY    72  69  90 S20G26    29.80F
STILLWATER     CLOUDY    69  67  93 SE12      29.79F
GUTHRIE        CLOUDY    73  69  87 S15G25    29.77F
$$

OKZ008-013-054>072-241100-
NORTHEAST OKLAHOMA

CITY           SKY/WX    TMP DP  RH WIND       PRES   REMARKS
TULSA          CLOUDY    69  66  90 SE10      29.84R
TULSA/JONES    CLOUDY    69  65  86 S6        29.85R
PONCA CITY     CLOUDY    69  66  90 SE10      29.80R
BARTLESVILLE   CLOUDY    67  64  90 S6        29.86R
MUSKOGEE       CLOUDY    68  64  87 SE8       29.88R
$$

OKZ032-040>043-046>053-073>077-241100-
SOUTH CENTRAL/SOUTHEAST OKLAHOMA

CITY           SKY/WX    TMP DP  RH WIND       PRES   REMARKS
ARDMORE/DWNTWN CLOUDY    73  68  83 SW8       29.89R
MCALESTER      CLOUDY    73  67  81 S7        29.87S
$$




USA.gov is the U.S. government's official web portal to all federal, state and local government web resources and services.